Location: Newark
(15.4608°S, 41.1635°W)
Time: 00:18:41
(UTC+00:00)

SR - All Passes

Search period start: 31 July 2021 00:00
Search period end: 10 August 2021 00:00
Orbit: 577 x 878 km, 66.7° (Epoch: 30 July)

Date Brightness Start Highest point End Pass type
(mag) Time Alt. Az. Time Alt. Az. Time Alt. Az.
31 Jul - 05:58:16 10° SSE 06:02:19 20° ESE 06:06:28 10° ENE visible
31 Jul - 07:39:03 10° SW 07:44:18 38° WNW 07:49:42 10° N visible
31 Jul - 20:14:42 10° NW 20:18:39 40° WSW 20:22:43 10° S daylight
01 Aug - 06:48:50 10° SSW 06:54:35 87° WNW 07:00:30 10° NNE visible
01 Aug - 19:24:46 10° N 19:28:55 63° ENE 19:33:09 10° SSE daylight
02 Aug - 05:59:26 10° S 06:04:48 41° ESE 06:10:18 10° NE visible
02 Aug - 07:42:49 10° WSW 07:46:34 18° WNW 07:50:22 10° NNW visible
02 Aug - 18:36:07 10° NNE 18:39:17 21° ENE 18:42:29 10° ESE daylight
02 Aug - 20:18:24 10° WNW 20:21:05 16° WSW 20:23:48 10° SSW daylight
03 Aug - 05:11:03 10° SSE 05:14:54 18° ESE 05:18:48 10° ENE visible
03 Aug - 06:51:31 10° SW 06:56:54 41° WNW 07:02:24 10° N visible
03 Aug - 19:27:10 10° NW 19:31:12 45° WSW 19:35:21 10° S daylight
04 Aug - 06:01:25 10° SSW 06:07:11 86° ESE 06:13:05 10° NNE visible
04 Aug - 18:37:22 10° N 18:41:28 56° ENE 18:45:41 10° SSE daylight
05 Aug - 05:12:05 10° S 05:17:22 38° ESE 05:22:47 10° NE night (unlit)
05 Aug - 06:55:09 10° WSW 06:59:10 19° WNW 07:03:15 10° NNW visible
05 Aug - 17:48:54 10° NNE 17:51:51 19° ENE 17:54:51 10° ESE daylight
05 Aug - 19:30:41 10° WNW 19:33:37 18° WSW 19:36:36 10° SSW daylight
06 Aug - 04:23:51 10° SSE 04:27:27 17° ESE 04:31:06 10° ENE night (unlit)
06 Aug - 06:04:02 10° SW 06:09:31 45° WNW 06:15:05 10° N visible
06 Aug - 18:39:39 10° NW 18:43:44 51° WSW 18:47:58 10° S daylight
07 Aug - 05:13:59 10° SSW 05:19:46 80° ESE 05:25:41 10° NNE night (unlit)
07 Aug - 17:49:58 10° N 17:54:01 49° ENE 17:58:12 10° SE daylight
08 Aug - 04:24:45 10° S 04:29:57 35° ESE 04:35:16 10° NE night (unlit)
08 Aug - 06:07:29 10° WSW 06:11:46 21° WNW 06:16:06 10° NNW night (unlit)
08 Aug - 17:01:42 10° NNE 17:04:25 17° ENE 17:07:10 10° ESE daylight
08 Aug - 18:43:00 10° WNW 18:46:08 20° WSW 18:49:22 10° SSW daylight
09 Aug - 03:36:42 10° SSE 03:40:01 15° ESE 03:43:21 10° E night (unlit)
09 Aug - 05:16:31 10° SW 05:22:06 49° WNW 05:27:46 10° N night (unlit)
09 Aug - 17:52:09 10° NNW 17:56:17 58° WSW 18:00:34 10° SSE daylight
